Time,TemperatureF,DewpointF,PressureIn,WindDirection,WindDirectionDegrees,WindSpeedMPH,WindSpeedGustMPH,Humidity,HourlyPrecipIn,Conditions,Clouds,dailyrainin,SolarRadiationWatts/m^2,SoftwareType,DateUTC
2013-05-03 00:01:00,47.3,44.2,30.32,SE,134,0.0,0.0,86,0.00,,,0.00,0.0,meteohub,2013-05-03 04:01:00,
2013-05-03 00:02:00,47.3,44.2,30.32,SE,134,0.0,0.0,86,0.00,,,0.00,0.0,meteohub,2013-05-03 04:02:00,
2013-05-03 00:04:00,47.1,44.1,30.32,SE,134,0.0,0.0,86,0.00,,,0.00,0.0,meteohub,2013-05-03 04:04:00,
2013-05-03 00:08:00,47.1,44.4,30.32,SE,134,0.0,1.0,87,0.00,,,0.00,0.0,meteohub,2013-05-03 04:08:00,
2013-05-03 00:14:00,46.8,43.7,30.32,SE,134,0.0,1.0,86,0.00,,,0.00,0.0,meteohub,2013-05-03 04:14:00,
2013-05-03 00:17:00,46.8,44.1,30.32,SE,134,0.0,1.0,87,0.00,,,0.00,0.0,meteohub,2013-05-03 04:17:00,
2013-05-03 00:22:00,46.6,43.9,30.32,SE,134,0.0,0.0,87,0.00,,,0.00,0.0,meteohub,2013-05-03 04:22:00,
2013-05-03 00:27:00,46.4,43.7,30.31,SE,134,0.0,0.0,87,0.00,,,0.00,0.0,meteohub,2013-05-03 04:27:00,
2013-05-03 00:32:00,46.2,43.5,30.31,SE,134,0.0,0.0,87,0.00,,,0.00,0.0,meteohub,2013-05-03 04:32:00,
2013-05-03 00:37:00,46.0,43.3,30.31,SE,134,0.0,0.0,87,0.00,,,0.00,0.0,meteohub,2013-05-03 04:37:00,
2013-05-03 00:44:00,45.7,43.0,30.31,SE,134,0.0,0.0,87,0.00,,,0.00,0.0,meteohub,2013-05-03 04:44:00,
2013-05-03 00:50:00,45.5,42.8,30.31,SE,134,0.0,0.0,87,0.00,,,0.00,0.0,meteohub,2013-05-03 04:50:00,
2013-05-03 00:56:00,45.3,42.6,30.31,SE,134,0.0,0.0,87,0.00,,,0.00,0.0,meteohub,2013-05-03 04:56:00,
2013-05-03 01:02:00,45.1,42.4,30.31,SE,134,0.0,0.0,87,0.00,,,0.00,0.0,meteohub,2013-05-03 05:02:00,
2013-05-03 01:07:00,45.0,42.4,30.31,SE,134,0.0,0.0,88,0.00,,,0.00,0.0,meteohub,2013-05-03 05:07:00,
2013-05-03 01:12:00,44.8,42.3,30.30,SE,134,0.0,0.0,88,0.00,,,0.00,0.0,meteohub,2013-05-03 05:12:00,
2013-05-03 01:17:00,44.8,42.3,30.30,SE,134,0.0,0.0,88,0.00,,,0.00,0.0,meteohub,2013-05-03 05:17:00,
2013-05-03 01:22:00,44.6,42.1,30.30,SE,134,0.0,0.0,88,0.00,,,0.00,0.0,meteohub,2013-05-03 05:22:00,
2013-05-03 01:27:00,44.6,42.1,30.30,SE,134,0.0,0.0,88,0.00,,,0.00,0.0,meteohub,2013-05-03 05:27:00,
2013-05-03 01:32:00,44.4,41.9,30.30,SE,134,0.0,0.0,88,0.00,,,0.00,0.0,meteohub,2013-05-03 05:32:00,
2013-05-03 01:37:00,44.2,41.7,30.30,SE,134,0.0,0.0,88,0.00,,,0.00,0.0,meteohub,2013-05-03 05:37:00,
2013-05-03 01:42:00,44.1,41.5,30.30,SE,134,0.0,0.0,88,0.00,,,0.00,0.0,meteohub,2013-05-03 05:42:00,
2013-05-03 01:47:00,44.1,41.5,30.30,SE,134,0.0,0.0,88,0.00,,,0.00,0.0,meteohub,2013-05-03 05:47:00,
2013-05-03 01:52:00,43.9,41.7,30.30,SE,134,0.0,0.0,89,0.00,,,0.00,0.0,meteohub,2013-05-03 05:52:00,
2013-05-03 01:57:00,43.9,41.4,30.30,SE,134,0.0,1.0,88,0.00,,,0.00,0.0,meteohub,2013-05-03 05:57:00,
2013-05-03 02:02:00,43.7,41.2,30.29,SE,134,0.0,1.0,88,0.00,,,0.00,0.0,meteohub,2013-05-03 06:02:00,
2013-05-03 02:07:00,43.7,41.2,30.29,SE,134,0.0,1.0,88,0.00,,,0.00,0.0,meteohub,2013-05-03 06:07:00,
2013-05-03 02:12:00,43.5,41.4,30.29,SE,134,0.0,0.0,89,0.00,,,0.00,0.0,meteohub,2013-05-03 06:12:00,
2013-05-03 02:17:00,43.3,41.2,30.29,SE,134,0.0,0.0,89,0.00,,,0.00,0.0,meteohub,2013-05-03 06:17:00,
2013-05-03 02:22:00,43.2,41.0,30.29,SE,134,0.0,1.0,89,0.00,,,0.00,0.0,meteohub,2013-05-03 06:22:00,
2013-05-03 02:27:00,43.2,41.0,30.28,SE,134,0.0,1.0,89,0.00,,,0.00,0.0,meteohub,2013-05-03 06:27:00,
2013-05-03 02:32:00,43.0,40.8,30.28,SE,136,0.0,2.0,89,0.00,,,0.00,0.0,meteohub,2013-05-03 06:32:00,
2013-05-03 02:37:00,43.0,40.8,30.29,SE,136,0.0,2.0,89,0.00,,,0.00,0.0,meteohub,2013-05-03 06:37:00,
2013-05-03 02:42:00,42.8,40.6,30.28,SE,136,0.0,2.0,89,0.00,,,0.00,0.0,meteohub,2013-05-03 06:42:00,
2013-05-03 02:47:00,42.8,40.6,30.28,SE,136,0.0,0.0,89,0.00,,,0.00,0.0,meteohub,2013-05-03 06:47:00,
2013-05-03 02:52:00,42.6,40.5,30.28,SE,136,0.0,0.0,89,0.00,,,0.00,0.0,meteohub,2013-05-03 06:52:00,
2013-05-03 02:57:00,42.6,40.5,30.28,SE,136,0.0,0.0,89,0.00,,,0.00,0.0,meteohub,2013-05-03 06:57:00,
2013-05-03 03:02:00,42.4,40.3,30.28,SE,136,0.0,0.0,89,0.00,,,0.00,0.0,meteohub,2013-05-03 07:02:00,
2013-05-03 03:07:00,42.4,40.3,30.29,SE,136,0.0,0.0,89,0.00,,,0.00,0.0,meteohub,2013-05-03 07:07:00,
2013-05-03 03:12:00,42.3,40.1,30.28,SE,136,0.0,0.0,89,0.00,,,0.00,0.0,meteohub,2013-05-03 07:12:00,
2013-05-03 03:17:00,42.3,40.1,30.28,SE,136,0.0,0.0,89,0.00,,,0.00,0.0,meteohub,2013-05-03 07:17:00,
2013-05-03 03:22:00,42.3,40.1,30.28,SE,136,0.0,0.0,89,0.00,,,0.00,0.0,meteohub,2013-05-03 07:22:00,
2013-05-03 03:27:00,42.1,39.9,30.28,SE,136,0.0,0.0,89,0.00,,,0.00,0.0,meteohub,2013-05-03 07:27:00,
2013-05-03 03:32:00,42.1,39.9,30.28,SE,136,0.0,0.0,89,0.00,,,0.00,0.0,meteohub,2013-05-03 07:32:00,
2013-05-03 03:37:00,42.1,40.3,30.28,SE,136,0.0,2.0,90,0.00,,,0.00,0.0,meteohub,2013-05-03 07:37:00,
2013-05-03 03:42:00,42.1,40.3,30.28,SE,136,0.0,2.0,90,0.00,,,0.00,0.0,meteohub,2013-05-03 07:42:00,
2013-05-03 03:47:00,41.9,40.1,30.28,SE,137,0.0,2.0,90,0.00,,,0.00,0.0,meteohub,2013-05-03 07:47:00,
2013-05-03 03:52:00,41.9,40.1,30.29,SE,137,0.0,1.0,90,0.00,,,0.00,0.0,meteohub,2013-05-03 07:52:00,
2013-05-03 03:57:00,41.9,40.1,30.28,SE,137,0.0,1.0,90,0.00,,,0.00,0.0,meteohub,2013-05-03 07:57:00,
2013-05-03 04:02:00,41.9,40.1,30.29,SE,137,0.0,1.0,90,0.00,,,0.00,0.0,meteohub,2013-05-03 08:02:00,
2013-05-03 04:07:00,41.7,39.9,30.28,SE,137,0.0,0.0,90,0.00,,,0.00,0.0,meteohub,2013-05-03 08:07:00,
2013-05-03 04:12:00,41.5,39.7,30.28,SE,137,0.0,0.0,90,0.00,,,0.00,0.0,meteohub,2013-05-03 08:12:00,
2013-05-03 04:17:00,41.5,39.7,30.28,SE,137,0.0,1.0,90,0.00,,,0.00,0.0,meteohub,2013-05-03 08:17:00,
2013-05-03 04:23:00,41.4,39.6,30.28,SE,137,0.0,1.0,90,0.00,,,0.00,0.0,meteohub,2013-05-03 08:23:00,
2013-05-03 04:29:00,41.4,39.6,30.28,SE,137,0.0,0.0,90,0.00,,,0.00,0.0,meteohub,2013-05-03 08:29:00,
2013-05-03 04:35:00,41.2,39.4,30.28,SE,137,0.0,0.0,90,0.00,,,0.00,0.0,meteohub,2013-05-03 08:35:00,
2013-05-03 04:41:00,41.2,39.4,30.28,SE,137,0.0,0.0,90,0.00,,,0.00,0.0,meteohub,2013-05-03 08:41:00,
2013-05-03 04:47:00,41.0,39.2,30.28,SE,137,0.0,0.0,90,0.00,,,0.00,0.0,meteohub,2013-05-03 08:47:00,
2013-05-03 04:52:00,41.0,39.2,30.28,SE,137,0.0,0.0,90,0.00,,,0.00,0.0,meteohub,2013-05-03 08:52:00,
2013-05-03 04:59:00,40.8,39.0,30.28,SE,137,0.0,0.0,90,0.00,,,0.00,0.0,meteohub,2013-05-03 08:59:00,
2013-05-03 05:05:00,40.8,39.0,30.29,SE,137,0.0,0.0,90,0.00,,,0.00,0.0,meteohub,2013-05-03 09:05:00,
2013-05-03 05:11:00,40.6,38.8,30.29,SE,137,0.0,0.0,90,0.00,,,0.00,0.0,meteohub,2013-05-03 09:11:00,
2013-05-03 05:17:00,40.5,38.7,30.29,SE,137,0.0,0.0,90,0.00,,,0.00,0.0,meteohub,2013-05-03 09:17:00,
2013-05-03 05:22:00,40.3,38.5,30.29,SE,137,0.0,0.0,90,0.00,,,0.00,0.0,meteohub,2013-05-03 09:22:00,
2013-05-03 05:27:00,40.3,38.5,30.29,SE,137,0.0,0.0,90,0.00,,,0.00,0.0,meteohub,2013-05-03 09:27:00,
2013-05-03 05:32:00,40.1,38.3,30.29,SE,137,0.0,0.0,90,0.00,,,0.00,0.0,meteohub,2013-05-03 09:32:00,
2013-05-03 05:37:00,40.1,38.3,30.29,SE,137,0.0,2.0,90,0.00,,,0.00,0.0,meteohub,2013-05-03 09:37:00,
2013-05-03 05:42:00,39.9,38.1,30.29,SE,137,0.0,2.0,90,0.00,,,0.00,0.0,meteohub,2013-05-03 09:42:00,
2013-05-03 05:47:00,39.9,38.1,30.30,SE,137,0.0,0.0,90,0.00,,,0.00,0.0,meteohub,2013-05-03 09:47:00,
2013-05-03 05:52:00,39.7,37.9,30.29,SE,137,0.0,0.0,90,0.00,,,0.00,0.0,meteohub,2013-05-03 09:52:00,
2013-05-03 05:57:00,39.6,37.8,30.30,SE,137,0.0,0.0,90,0.00,,,0.00,0.0,meteohub,2013-05-03 09:57:00,
2013-05-03 06:02:00,39.6,37.8,30.30,SE,137,0.0,0.0,90,0.00,,,0.00,0.0,meteohub,2013-05-03 10:02:00,
2013-05-03 06:07:00,39.4,37.6,30.30,SE,138,0.0,1.0,90,0.00,,,0.00,0.0,meteohub,2013-05-03 10:07:00,
2013-05-03 06:12:00,39.4,37.6,30.30,SE,138,0.0,1.0,90,0.00,,,0.00,0.0,meteohub,2013-05-03 10:12:00,
2013-05-03 06:17:00,39.4,37.6,30.30,SE,138,0.0,1.0,90,0.00,,,0.00,0.0,meteohub,2013-05-03 10:17:00,
2013-05-03 06:22:00,39.2,37.4,30.31,SE,138,0.0,0.0,90,0.00,,,0.00,7.0,meteohub,2013-05-03 10:22:00,
2013-05-03 06:27:00,39.2,37.4,30.31,SE,138,0.0,0.0,90,0.00,,,0.00,9.0,meteohub,2013-05-03 10:27:00,
2013-05-03 06:32:00,39.2,37.4,30.31,SE,138,0.0,0.0,90,0.00,,,0.00,16.0,meteohub,2013-05-03 10:32:00,
2013-05-03 06:37:00,39.2,37.4,30.32,SE,138,0.0,0.0,90,0.00,,,0.00,23.0,meteohub,2013-05-03 10:37:00,
2013-05-03 06:42:00,39.2,37.4,30.32,SE,138,0.0,0.0,90,0.00,,,0.00,32.0,meteohub,2013-05-03 10:42:00,
2013-05-03 06:47:00,39.2,37.4,30.32,SE,138,0.0,0.0,90,0.00,,,0.00,35.0,meteohub,2013-05-03 10:47:00,
2013-05-03 06:52:00,39.4,37.6,30.32,SE,138,1.0,0.0,90,0.00,,,0.00,33.0,meteohub,2013-05-03 10:52:00,
2013-05-03 06:57:00,39.4,37.6,30.33,SE,138,0.0,2.0,90,0.00,,,0.00,39.0,meteohub,2013-05-03 10:57:00,
2013-05-03 07:02:00,39.4,37.6,30.33,SE,138,0.0,2.0,90,0.00,,,0.00,42.0,meteohub,2013-05-03 11:02:00,
2013-05-03 07:07:00,39.6,37.8,30.33,SE,138,0.0,2.0,90,0.00,,,0.00,44.0,meteohub,2013-05-03 11:07:00,
2013-05-03 07:12:00,39.6,37.8,30.33,SE,138,0.0,1.0,90,0.00,,,0.00,54.0,meteohub,2013-05-03 11:12:00,
2013-05-03 07:17:00,39.7,37.9,30.34,SE,138,0.0,0.0,90,0.00,,,0.00,46.0,meteohub,2013-05-03 11:17:00,
2013-05-03 07:22:00,39.9,38.3,30.34,SE,138,0.0,0.0,91,0.00,,,0.00,37.0,meteohub,2013-05-03 11:22:00,
2013-05-03 07:27:00,40.1,38.5,30.34,SE,138,0.0,1.0,91,0.00,,,0.00,62.0,meteohub,2013-05-03 11:27:00,
2013-05-03 07:34:00,41.0,39.4,30.34,SE,138,0.0,2.0,91,0.00,,,0.00,40.0,meteohub,2013-05-03 11:34:00,
2013-05-03 07:40:00,41.4,39.7,30.34,SE,138,0.0,2.0,91,0.00,,,0.00,53.0,meteohub,2013-05-03 11:40:00,
2013-05-03 07:46:00,41.7,40.1,30.35,SE,138,0.0,1.0,91,0.00,,,0.00,56.0,meteohub,2013-05-03 11:46:00,
2013-05-03 07:52:00,42.3,41.0,30.35,West,263,0.0,0.0,92,0.00,,,0.00,70.0,meteohub,2013-05-03 11:52:00,
2013-05-03 07:57:00,42.6,41.0,30.35,West,263,0.0,1.0,91,0.00,,,0.00,63.0,meteohub,2013-05-03 11:57:00,
2013-05-03 08:02:00,43.0,41.7,30.35,West,263,0.0,1.0,92,0.00,,,0.00,88.0,meteohub,2013-05-03 12:02:00,
2013-05-03 08:07:00,43.2,41.9,30.35,West,263,0.0,1.0,92,0.00,,,0.00,69.0,meteohub,2013-05-03 12:07:00,
2013-05-03 08:12:00,43.5,42.3,30.35,West,263,0.0,1.0,92,0.00,,,0.00,70.0,meteohub,2013-05-03 12:12:00,
2013-05-03 08:17:00,43.9,42.6,30.35,West,263,0.0,1.0,92,0.00,,,0.00,74.0,meteohub,2013-05-03 12:17:00,
2013-05-03 08:22:00,44.1,42.8,30.35,West,263,0.0,1.0,92,0.00,,,0.00,151.0,meteohub,2013-05-03 12:22:00,
2013-05-03 08:29:00,44.8,43.5,30.35,West,263,1.0,1.0,92,0.00,,,0.00,137.0,meteohub,2013-05-03 12:29:00,
2013-05-03 08:35:00,45.3,44.1,30.35,West,263,0.0,2.0,92,0.00,,,0.00,171.0,meteohub,2013-05-03 12:35:00,
2013-05-03 08:41:00,45.9,44.4,30.35,SSW,211,2.0,2.0,92,0.00,,,0.00,162.0,meteohub,2013-05-03 12:41:00,
2013-05-03 08:47:00,46.6,45.1,30.35,SSW,199,1.0,3.0,92,0.00,,,0.00,236.0,meteohub,2013-05-03 12:47:00,
2013-05-03 08:52:00,47.3,45.9,30.35,West,261,3.0,3.0,92,0.00,,,0.00,308.0,meteohub,2013-05-03 12:52:00,
2013-05-03 08:57:00,48.6,47.1,30.35,West,271,3.0,4.0,92,0.00,,,0.00,605.0,meteohub,2013-05-03 12:57:00,
2013-05-03 09:02:00,49.5,48.0,30.35,WSW,244,0.0,4.0,92,0.00,,,0.00,612.0,meteohub,2013-05-03 13:02:00,
2013-05-03 09:07:00,50.5,49.1,30.35,South,173,1.0,4.0,92,0.00,,,0.00,288.0,meteohub,2013-05-03 13:07:00,
2013-05-03 09:12:00,51.3,49.8,30.35,ESE,119,2.0,4.0,92,0.00,,,0.00,264.0,meteohub,2013-05-03 13:12:00,
2013-05-03 09:17:00,52.2,50.5,30.35,SE,128,3.0,4.0,91,0.00,,,0.00,237.0,meteohub,2013-05-03 13:17:00,
2013-05-03 09:22:00,52.9,50.0,30.35,NNE,14,2.0,7.0,87,0.00,,,0.00,285.0,meteohub,2013-05-03 13:22:00,
2013-05-03 09:27:00,53.6,50.2,30.36,ENE,63,5.0,7.0,85,0.00,,,0.00,213.0,meteohub,2013-05-03 13:27:00,
2013-05-03 09:33:00,54.1,49.6,30.36,ESE,107,5.0,10.0,82,0.00,,,0.00,251.0,meteohub,2013-05-03 13:33:00,
2013-05-03 09:39:00,54.5,49.8,30.36,East,95,1.0,10.0,81,0.00,,,0.00,278.0,meteohub,2013-05-03 13:39:00,
2013-05-03 09:45:00,55.0,50.0,30.36,NE,47,3.0,10.0,80,0.00,,,0.00,417.0,meteohub,2013-05-03 13:45:00,
2013-05-03 09:51:00,56.1,50.7,30.35,East,85,4.0,7.0,79,0.00,,,0.00,918.0,meteohub,2013-05-03 13:51:00,
2013-05-03 09:57:00,56.8,50.4,30.36,ENE,70,5.0,9.0,76,0.00,,,0.00,320.0,meteohub,2013-05-03 13:57:00,
2013-05-03 10:02:00,57.0,50.2,30.36,East,88,4.0,10.0,75,0.00,,,0.00,359.0,meteohub,2013-05-03 14:02:00,
2013-05-03 10:07:00,57.2,50.4,30.36,ENE,77,3.0,10.0,75,0.00,,,0.00,371.0,meteohub,2013-05-03 14:07:00,
2013-05-03 10:12:00,57.6,50.7,30.36,SW,225,2.0,10.0,75,0.00,,,0.00,362.0,meteohub,2013-05-03 14:12:00,
2013-05-03 10:17:00,58.1,51.3,30.36,North,11,0.0,7.0,75,0.00,,,0.00,446.0,meteohub,2013-05-03 14:17:00,
2013-05-03 10:22:00,58.3,50.0,30.36,NE,56,4.0,7.0,71,0.00,,,0.00,387.0,meteohub,2013-05-03 14:22:00,
2013-05-03 10:27:00,58.5,50.5,30.36,ENE,57,3.0,6.0,72,0.00,,,0.00,441.0,meteohub,2013-05-03 14:27:00,
2013-05-03 10:32:00,58.6,50.7,30.36,ENE,78,3.0,6.0,72,0.00,,,0.00,418.0,meteohub,2013-05-03 14:32:00,
2013-05-03 10:37:00,59.0,50.0,30.35,NE,39,4.0,6.0,69,0.00,,,0.00,455.0,meteohub,2013-05-03 14:37:00,
2013-05-03 10:42:00,59.2,49.8,30.35,NNE,21,0.0,14.0,68,0.00,,,0.00,374.0,meteohub,2013-05-03 14:42:00,
2013-05-03 10:47:00,59.5,49.8,30.35,East,98,12.0,14.0,67,0.00,,,0.00,434.0,meteohub,2013-05-03 14:47:00,
2013-05-03 10:52:00,59.2,49.8,30.35,ESE,123,9.0,14.0,68,0.00,,,0.00,385.0,meteohub,2013-05-03 14:52:00,
2013-05-03 10:57:00,59.2,49.8,30.36,ENE,66,9.0,14.0,68,0.00,,,0.00,313.0,meteohub,2013-05-03 14:57:00,
2013-05-03 11:02:00,59.4,50.4,30.36,East,92,3.0,14.0,69,0.00,,,0.00,241.0,meteohub,2013-05-03 15:02:00,
2013-05-03 11:07:00,59.2,50.2,30.36,SE,128,4.0,12.0,69,0.00,,,0.00,501.0,meteohub,2013-05-03 15:07:00,
2013-05-03 11:12:00,59.0,50.4,30.36,ENE,68,4.0,10.0,70,0.00,,,0.00,315.0,meteohub,2013-05-03 15:12:00,
2013-05-03 11:17:00,59.4,50.7,30.35,East,79,4.0,10.0,70,0.00,,,0.00,879.0,meteohub,2013-05-03 15:17:00,
2013-05-03 11:22:00,59.7,51.1,30.35,ENE,69,5.0,10.0,70,0.00,,,0.00,656.0,meteohub,2013-05-03 15:22:00,
2013-05-03 11:27:00,60.1,51.4,30.35,East,91,5.0,7.0,70,0.00,,,0.00,339.0,meteohub,2013-05-03 15:27:00,
2013-05-03 11:32:00,60.1,51.1,30.35,ENE,77,10.0,12.0,69,0.00,,,0.00,330.0,meteohub,2013-05-03 15:32:00,
2013-05-03 11:37:00,59.9,50.9,30.35,SSW,201,3.0,13.0,69,0.00,,,0.00,933.0,meteohub,2013-05-03 15:37:00,
2013-05-03 11:42:00,60.3,51.3,30.35,NNE,17,2.0,13.0,69,0.00,,,0.00,272.0,meteohub,2013-05-03 15:42:00,
2013-05-03 11:47:00,60.6,50.7,30.35,NNE,30,8.0,13.0,67,0.00,,,0.00,285.0,meteohub,2013-05-03 15:47:00,
2013-05-03 11:52:00,60.6,50.7,30.35,ESE,105,1.0,11.0,67,0.00,,,0.00,334.0,meteohub,2013-05-03 15:52:00,
2013-05-03 11:57:00,60.8,51.3,30.35,SE,137,2.0,11.0,68,0.00,,,0.00,1153.0,meteohub,2013-05-03 15:57:00,
2013-05-03 12:02:00,61.5,51.3,30.35,ENE,59,5.0,11.0,66,0.00,,,0.00,401.0,meteohub,2013-05-03 16:02:00,
2013-05-03 12:07:00,61.7,49.8,30.35,SE,132,3.0,9.0,62,0.00,,,0.00,341.0,meteohub,2013-05-03 16:07:00,
2013-05-03 12:12:00,61.3,50.4,30.35,SE,135,4.0,9.0,64,0.00,,,0.00,362.0,meteohub,2013-05-03 16:12:00,
2013-05-03 12:17:00,61.7,50.2,30.35,ENE,67,1.0,9.0,63,0.00,,,0.00,475.0,meteohub,2013-05-03 16:17:00,
2013-05-03 12:22:00,61.7,50.5,30.35,ENE,74,5.0,9.0,64,0.00,,,0.00,508.0,meteohub,2013-05-03 16:22:00,
2013-05-03 12:27:00,62.1,50.5,30.35,ESE,110,1.0,9.0,63,0.00,,,0.00,360.0,meteohub,2013-05-03 16:27:00,
2013-05-03 12:32:00,62.2,50.7,30.35,East,79,3.0,9.0,63,0.00,,,0.00,308.0,meteohub,2013-05-03 16:32:00,
2013-05-03 12:37:00,61.9,50.4,30.34,ESE,108,2.0,10.0,63,0.00,,,0.00,408.0,meteohub,2013-05-03 16:37:00,
2013-05-03 12:42:00,62.4,50.9,30.34,ENE,70,4.0,10.0,63,0.00,,,0.00,1165.0,meteohub,2013-05-03 16:42:00,
2013-05-03 12:47:00,62.6,50.2,30.33,SE,128,0.0,11.0,61,0.00,,,0.00,313.0,meteohub,2013-05-03 16:47:00,
2013-05-03 12:52:00,62.4,50.9,30.33,ESE,118,9.0,11.0,63,0.00,,,0.00,352.0,meteohub,2013-05-03 16:52:00,
2013-05-03 12:57:00,62.1,50.5,30.33,NE,53,2.0,11.0,63,0.00,,,0.00,383.0,meteohub,2013-05-03 16:57:00,
2013-05-03 13:02:00,62.1,50.9,30.33,East,80,6.0,11.0,64,0.00,,,0.00,471.0,meteohub,2013-05-03 17:02:00,
2013-05-03 13:07:00,62.2,50.7,30.33,ENE,59,6.0,11.0,63,0.00,,,0.00,292.0,meteohub,2013-05-03 17:07:00,
2013-05-03 13:14:00,62.6,51.4,30.32,ENE,58,3.0,10.0,64,0.00,,,0.00,415.0,meteohub,2013-05-03 17:14:00,
2013-05-03 13:20:00,62.8,50.9,30.32,ENE,67,5.0,12.0,62,0.00,,,0.00,401.0,meteohub,2013-05-03 17:20:00,
2013-05-03 13:26:00,62.6,50.7,30.32,East,83,6.0,12.0,62,0.00,,,0.00,448.0,meteohub,2013-05-03 17:26:00,
2013-05-03 13:32:00,63.0,51.4,30.32,East,87,4.0,7.0,63,0.00,,,0.00,279.0,meteohub,2013-05-03 17:32:00,
2013-05-03 13:37:00,63.0,51.1,30.32,East,92,2.0,10.0,62,0.00,,,0.00,339.0,meteohub,2013-05-03 17:37:00,
2013-05-03 13:42:00,63.0,51.4,30.32,ESE,110,5.0,10.0,63,0.00,,,0.00,538.0,meteohub,2013-05-03 17:42:00,
2013-05-03 13:47:00,63.3,51.3,30.32,NNW,333,1.0,10.0,62,0.00,,,0.00,847.0,meteohub,2013-05-03 17:47:00,
2013-05-03 13:52:00,64.2,52.2,30.32,ESE,107,3.0,10.0,62,0.00,,,0.00,563.0,meteohub,2013-05-03 17:52:00,
2013-05-03 13:57:00,64.4,51.4,30.32,NE,56,3.0,12.0,60,0.00,,,0.00,304.0,meteohub,2013-05-03 17:57:00,
2013-05-03 14:02:00,64.4,51.4,30.32,NE,46,1.0,12.0,60,0.00,,,0.00,279.0,meteohub,2013-05-03 18:02:00,
2013-05-03 14:07:00,64.2,51.3,30.31,East,88,5.0,9.0,60,0.00,,,0.00,432.0,meteohub,2013-05-03 18:07:00,
2013-05-03 14:12:00,64.2,51.3,30.31,ENE,68,6.0,9.0,60,0.00,,,0.00,411.0,meteohub,2013-05-03 18:12:00,
2013-05-03 14:17:00,64.0,51.6,30.31,East,81,3.0,11.0,61,0.00,,,0.00,464.0,meteohub,2013-05-03 18:17:00,
2013-05-03 14:22:00,64.4,51.4,30.30,East,80,2.0,11.0,60,0.00,,,0.00,1092.0,meteohub,2013-05-03 18:22:00,
2013-05-03 14:27:00,65.1,52.7,30.30,SE,143,3.0,11.0,61,0.00,,,0.00,1179.0,meteohub,2013-05-03 18:27:00,
2013-05-03 14:32:00,66.0,52.2,30.30,North,11,4.0,7.0,58,0.00,,,0.00,1206.0,meteohub,2013-05-03 18:32:00,
2013-05-03 14:37:00,66.4,51.6,30.30,NE,43,1.0,7.0,56,0.00,,,0.00,353.0,meteohub,2013-05-03 18:37:00,
2013-05-03 14:42:00,66.0,50.7,30.29,East,101,5.0,10.0,55,0.00,,,0.00,380.0,meteohub,2013-05-03 18:42:00,
2013-05-03 14:47:00,65.5,52.2,30.29,ENE,58,4.0,10.0,59,0.00,,,0.00,1178.0,meteohub,2013-05-03 18:47:00,
2013-05-03 14:52:00,66.6,51.3,30.28,NE,34,0.0,9.0,55,0.00,,,0.00,582.0,meteohub,2013-05-03 18:52:00,
2013-05-03 14:57:00,66.7,52.0,30.28,ESE,121,2.0,9.0,56,0.00,,,0.00,415.0,meteohub,2013-05-03 18:57:00,
2013-05-03 15:02:00,66.9,51.1,30.28,East,86,1.0,9.0,54,0.00,,,0.00,1116.0,meteohub,2013-05-03 19:02:00,
2013-05-03 15:07:00,66.4,50.7,30.28,ESE,115,4.0,9.0,54,0.00,,,0.00,260.0,meteohub,2013-05-03 19:07:00,
2013-05-03 15:12:00,66.0,51.8,30.28,NE,50,0.0,7.0,57,0.00,,,0.00,287.0,meteohub,2013-05-03 19:12:00,
2013-05-03 15:17:00,66.0,51.8,30.27,ENE,60,2.0,7.0,57,0.00,,,0.00,345.0,meteohub,2013-05-03 19:17:00,
2013-05-03 15:22:00,66.0,51.3,30.27,NE,52,3.0,7.0,56,0.00,,,0.00,381.0,meteohub,2013-05-03 19:22:00,
2013-05-03 15:27:00,66.4,51.6,30.26,SSE,163,2.0,5.0,56,0.00,,,0.00,940.0,meteohub,2013-05-03 19:27:00,
2013-05-03 15:32:00,66.4,51.1,30.26,South,175,2.0,5.0,55,0.00,,,0.00,294.0,meteohub,2013-05-03 19:32:00,
2013-05-03 15:37:00,66.4,51.6,30.26,ENE,69,6.0,6.0,56,0.00,,,0.00,283.0,meteohub,2013-05-03 19:37:00,
2013-05-03 15:42:00,66.4,51.1,30.26,ESE,116,4.0,9.0,55,0.00,,,0.00,350.0,meteohub,2013-05-03 19:42:00,
2013-05-03 15:47:00,66.7,51.1,30.25,East,80,1.0,9.0,54,0.00,,,0.00,798.0,meteohub,2013-05-03 19:47:00,
2013-05-03 15:52:00,67.3,51.1,30.25,East,98,0.0,9.0,53,0.00,,,0.00,765.0,meteohub,2013-05-03 19:52:00,
2013-05-03 15:57:00,67.5,51.3,30.25,East,96,6.0,7.0,53,0.00,,,0.00,174.0,meteohub,2013-05-03 19:57:00,
2013-05-03 16:04:00,66.9,50.7,30.25,ESE,106,4.0,10.0,53,0.00,,,0.00,745.0,meteohub,2013-05-03 20:04:00,
2013-05-03 16:10:00,66.9,51.1,30.25,NE,44,2.0,11.0,54,0.00,,,0.00,631.0,meteohub,2013-05-03 20:10:00,
2013-05-03 16:17:00,67.3,51.1,30.25,North,0,5.0,11.0,53,0.00,,,0.00,269.0,meteohub,2013-05-03 20:17:00,
2013-05-03 16:22:00,67.5,51.6,30.25,NW,319,2.0,10.0,54,0.00,,,0.00,195.0,meteohub,2013-05-03 20:22:00,
2013-05-03 16:27:00,67.1,50.9,30.24,East,79,1.0,10.0,53,0.00,,,0.00,237.0,meteohub,2013-05-03 20:27:00,
2013-05-03 16:32:00,67.1,50.4,30.24,NE,49,1.0,10.0,52,0.00,,,0.00,297.0,meteohub,2013-05-03 20:32:00,
2013-05-03 16:37:00,67.3,50.0,30.24,ENE,77,0.0,6.0,51,0.00,,,0.00,575.0,meteohub,2013-05-03 20:37:00,
2013-05-03 16:42:00,67.6,49.8,30.24,WNW,288,1.0,6.0,50,0.00,,,0.00,285.0,meteohub,2013-05-03 20:42:00,
2013-05-03 16:47:00,67.8,49.5,30.24,NE,49,0.0,6.0,49,0.00,,,0.00,360.0,meteohub,2013-05-03 20:47:00,
2013-05-03 16:52:00,68.0,49.1,30.24,NE,46,3.0,9.0,48,0.00,,,0.00,251.0,meteohub,2013-05-03 20:52:00,
2013-05-03 16:57:00,67.8,49.5,30.24,ENE,77,4.0,9.0,49,0.00,,,0.00,281.0,meteohub,2013-05-03 20:57:00,
2013-05-03 17:02:00,67.8,50.5,30.24,NE,36,3.0,9.0,51,0.00,,,0.00,257.0,meteohub,2013-05-03 21:02:00,
2013-05-03 17:08:00,68.0,49.6,30.24,East,79,3.0,8.0,49,0.00,,,0.00,636.0,meteohub,2013-05-03 21:08:00,
2013-05-03 17:14:00,68.2,48.7,30.23,SW,214,2.0,6.0,47,0.00,,,0.00,580.0,meteohub,2013-05-03 21:14:00,
2013-05-03 17:20:00,68.5,49.1,30.23,ENE,78,4.0,9.0,47,0.00,,,0.00,148.0,meteohub,2013-05-03 21:20:00,
2013-05-03 17:26:00,68.4,49.5,30.23,NE,55,2.0,9.0,48,0.00,,,0.00,163.0,meteohub,2013-05-03 21:26:00,
2013-05-03 17:32:00,68.0,49.1,30.23,ENE,69,1.0,8.0,48,0.00,,,0.00,179.0,meteohub,2013-05-03 21:32:00,
2013-05-03 17:37:00,67.8,48.9,30.23,East,90,0.0,6.0,48,0.00,,,0.00,475.0,meteohub,2013-05-03 21:37:00,
2013-05-03 17:42:00,67.8,48.0,30.23,ENE,78,3.0,5.0,46,0.00,,,0.00,123.0,meteohub,2013-05-03 21:42:00,
2013-05-03 17:47:00,67.6,47.8,30.23,East,83,6.0,7.0,46,0.00,,,0.00,172.0,meteohub,2013-05-03 21:47:00,
2013-05-03 17:52:00,67.5,48.7,30.23,North,355,0.0,7.0,48,0.00,,,0.00,156.0,meteohub,2013-05-03 21:52:00,
2013-05-03 17:57:00,67.3,48.0,30.24,East,83,4.0,7.0,47,0.00,,,0.00,93.0,meteohub,2013-05-03 21:57:00,
2013-05-03 18:02:00,67.1,47.3,30.23,ESE,103,3.0,6.0,46,0.00,,,0.00,144.0,meteohub,2013-05-03 22:02:00,
2013-05-03 18:07:00,66.9,46.6,30.24,NE,42,4.0,7.0,45,0.00,,,0.00,327.0,meteohub,2013-05-03 22:07:00,
2013-05-03 18:12:00,67.1,46.2,30.24,NE,43,5.0,7.0,44,0.00,,,0.00,271.0,meteohub,2013-05-03 22:12:00,
2013-05-03 18:17:00,67.3,45.7,30.24,East,81,3.0,9.0,43,0.00,,,0.00,262.0,meteohub,2013-05-03 22:17:00,
2013-05-03 18:22:00,67.1,45.7,30.24,ENE,72,7.0,12.0,43,0.00,,,0.00,258.0,meteohub,2013-05-03 22:22:00,
2013-05-03 18:27:00,67.1,46.2,30.24,East,91,6.0,12.0,44,0.00,,,0.00,243.0,meteohub,2013-05-03 22:27:00,
2013-05-03 18:32:00,66.9,45.5,30.24,ESE,112,5.0,12.0,43,0.00,,,0.00,227.0,meteohub,2013-05-03 22:32:00,
2013-05-03 18:37:00,66.9,45.5,30.24,NE,55,3.0,13.0,43,0.00,,,0.00,207.0,meteohub,2013-05-03 22:37:00,
2013-05-03 18:42:00,66.6,43.9,30.24,ESE,117,6.0,13.0,41,0.00,,,0.00,185.0,meteohub,2013-05-03 22:42:00,
2013-05-03 18:48:00,66.4,44.4,30.24,ENE,78,5.0,13.0,42,0.00,,,0.00,137.0,meteohub,2013-05-03 22:48:00,
2013-05-03 18:54:00,66.2,43.7,30.24,ESE,119,6.0,17.0,41,0.00,,,0.00,111.0,meteohub,2013-05-03 22:54:00,
2013-05-03 19:01:00,65.7,44.2,30.24,ENE,74,7.0,17.0,43,0.00,,,0.00,90.0,meteohub,2013-05-03 23:01:00,
2013-05-03 19:07:00,65.3,43.9,30.24,East,88,9.0,16.0,43,0.00,,,0.00,69.0,meteohub,2013-05-03 23:07:00,
2013-05-03 19:12:00,64.9,44.2,30.24,ESE,109,4.0,13.0,44,0.00,,,0.00,58.0,meteohub,2013-05-03 23:12:00,
2013-05-03 19:17:00,64.6,43.9,30.25,East,95,3.0,14.0,44,0.00,,,0.00,51.0,meteohub,2013-05-03 23:17:00,
2013-05-03 19:22:00,64.2,43.5,30.25,North,5,4.0,14.0,44,0.00,,,0.00,46.0,meteohub,2013-05-03 23:22:00,
2013-05-03 19:28:00,63.7,43.0,30.25,NNE,30,6.0,14.0,44,0.00,,,0.00,39.0,meteohub,2013-05-03 23:28:00,
2013-05-03 19:34:00,63.5,42.8,30.25,ESE,109,4.0,11.0,44,0.00,,,0.00,28.0,meteohub,2013-05-03 23:34:00,
2013-05-03 19:40:00,63.0,43.0,30.25,East,90,2.0,10.0,45,0.00,,,0.00,21.0,meteohub,2013-05-03 23:40:00,
2013-05-03 19:46:00,62.6,43.2,30.26,East,90,3.0,10.0,46,0.00,,,0.00,16.0,meteohub,2013-05-03 23:46:00,
2013-05-03 19:52:00,62.2,42.8,30.26,ENE,74,2.0,7.0,46,0.00,,,0.00,11.0,meteohub,2013-05-03 23:52:00,
2013-05-03 19:57:00,61.9,43.0,30.26,ESE,105,3.0,9.0,47,0.00,,,0.00,7.0,meteohub,2013-05-03 23:57:00,
2013-05-03 20:02:00,61.3,43.0,30.26,NNE,32,1.0,10.0,48,0.00,,,0.00,0.0,meteohub,2013-05-04 00:02:00,
2013-05-03 20:07:00,61.0,43.2,30.27,East,100,4.0,10.0,49,0.00,,,0.00,0.0,meteohub,2013-05-04 00:07:00,
2013-05-03 20:13:00,60.6,43.3,30.26,ESE,110,4.0,10.0,50,0.00,,,0.00,0.0,meteohub,2013-05-04 00:13:00,
2013-05-03 20:20:00,60.3,42.6,30.27,East,80,3.0,7.0,49,0.00,,,0.00,0.0,meteohub,2013-05-04 00:20:00,
2013-05-03 20:26:00,60.1,41.4,30.27,SE,126,2.0,12.0,47,0.00,,,0.00,0.0,meteohub,2013-05-04 00:26:00,
2013-05-03 20:32:00,59.7,40.5,30.27,ENE,62,5.0,12.0,46,0.00,,,0.00,0.0,meteohub,2013-05-04 00:32:00,
2013-05-03 20:37:00,59.4,41.2,30.27,ESE,115,1.0,12.0,48,0.00,,,0.00,0.0,meteohub,2013-05-04 00:37:00,
2013-05-03 20:42:00,59.0,40.3,30.28,East,90,3.0,9.0,47,0.00,,,0.00,0.0,meteohub,2013-05-04 00:42:00,
2013-05-03 20:47:00,58.8,40.6,30.28,ENE,62,0.0,7.0,48,0.00,,,0.00,0.0,meteohub,2013-05-04 00:47:00,
2013-05-03 20:52:00,58.6,40.5,30.28,ENE,69,2.0,11.0,48,0.00,,,0.00,0.0,meteohub,2013-05-04 00:52:00,
2013-05-03 20:57:00,58.3,40.6,30.28,ENE,59,3.0,11.0,49,0.00,,,0.00,0.0,meteohub,2013-05-04 00:57:00,
2013-05-03 21:02:00,57.9,40.8,30.28,East,90,3.0,11.0,50,0.00,,,0.00,0.0,meteohub,2013-05-04 01:02:00,
2013-05-03 21:07:00,57.6,41.0,30.29,NE,49,2.0,8.0,51,0.00,,,0.00,0.0,meteohub,2013-05-04 01:07:00,
2013-05-03 21:12:00,57.2,41.2,30.29,ENE,67,3.0,9.0,52,0.00,,,0.00,0.0,meteohub,2013-05-04 01:12:00,
2013-05-03 21:17:00,57.0,41.5,30.29,East,79,3.0,10.0,53,0.00,,,0.00,0.0,meteohub,2013-05-04 01:17:00,
2013-05-03 21:22:00,56.7,41.2,30.30,ESE,109,2.0,10.0,53,0.00,,,0.00,0.0,meteohub,2013-05-04 01:22:00,
2013-05-03 21:27:00,56.5,41.4,30.30,ENE,76,2.0,10.0,54,0.00,,,0.00,0.0,meteohub,2013-05-04 01:27:00,
2013-05-03 21:32:00,56.1,41.9,30.30,ESE,109,9.0,9.0,56,0.00,,,0.00,0.0,meteohub,2013-05-04 01:32:00,
2013-05-03 21:39:00,55.9,41.7,30.30,East,89,3.0,9.0,56,0.00,,,0.00,0.0,meteohub,2013-05-04 01:39:00,
2013-05-03 21:45:00,55.8,42.4,30.30,East,81,4.0,9.0,58,0.00,,,0.00,0.0,meteohub,2013-05-04 01:45:00,
2013-05-03 21:51:00,55.4,42.6,30.31,ENE,70,4.0,8.0,59,0.00,,,0.00,0.0,meteohub,2013-05-04 01:51:00,
2013-05-03 21:57:00,54.9,42.4,30.31,East,88,2.0,9.0,60,0.00,,,0.00,0.0,meteohub,2013-05-04 01:57:00,
2013-05-03 22:02:00,54.7,42.8,30.31,ESE,108,5.0,9.0,61,0.00,,,0.00,0.0,meteohub,2013-05-04 02:02:00,
2013-05-03 22:07:00,54.5,43.0,30.31,ESE,109,4.0,9.0,62,0.00,,,0.00,0.0,meteohub,2013-05-04 02:07:00,
2013-05-03 22:12:00,54.3,43.2,30.31,ESE,117,0.0,6.0,63,0.00,,,0.00,0.0,meteohub,2013-05-04 02:12:00,
2013-05-03 22:17:00,54.0,42.8,30.31,ESE,110,2.0,6.0,63,0.00,,,0.00,0.0,meteohub,2013-05-04 02:17:00,
2013-05-03 22:22:00,53.8,43.0,30.31,ESE,109,2.0,5.0,64,0.00,,,0.00,0.0,meteohub,2013-05-04 02:22:00,
2013-05-03 22:27:00,53.6,43.0,30.32,ESE,117,2.0,5.0,64,0.00,,,0.00,0.0,meteohub,2013-05-04 02:27:00,
2013-05-03 22:33:00,53.4,42.8,30.32,ENE,76,0.0,6.0,64,0.00,,,0.00,0.0,meteohub,2013-05-04 02:33:00,
2013-05-03 22:40:00,53.2,43.0,30.32,ESE,123,5.0,6.0,65,0.00,,,0.00,0.0,meteohub,2013-05-04 02:40:00,
2013-05-03 22:46:00,53.1,42.8,30.32,ESE,118,0.0,9.0,65,0.00,,,0.00,0.0,meteohub,2013-05-04 02:46:00,
2013-05-03 22:52:00,52.9,43.0,30.32,South,185,2.0,9.0,66,0.00,,,0.00,0.0,meteohub,2013-05-04 02:52:00,
2013-05-03 22:57:00,52.7,43.2,30.32,ESE,119,4.0,4.0,67,0.00,,,0.00,0.0,meteohub,2013-05-04 02:57:00,
2013-05-03 23:02:00,52.5,43.0,30.31,East,94,0.0,5.0,67,0.00,,,0.00,0.0,meteohub,2013-05-04 03:02:00,
2013-05-03 23:07:00,52.2,43.0,30.31,East,94,0.0,5.0,68,0.00,,,0.00,0.0,meteohub,2013-05-04 03:07:00,
2013-05-03 23:13:00,51.6,42.4,30.32,East,94,0.0,5.0,68,0.00,,,0.00,0.0,meteohub,2013-05-04 03:13:00,
2013-05-03 23:19:00,51.3,43.0,30.31,East,92,3.0,3.0,70,0.00,,,0.00,0.0,meteohub,2013-05-04 03:19:00,
2013-05-03 23:25:00,50.9,42.6,30.32,NNE,30,0.0,5.0,70,0.00,,,0.00,0.0,meteohub,2013-05-04 03:25:00,
2013-05-03 23:31:00,50.5,42.3,30.31,NNE,30,0.0,5.0,70,0.00,,,0.00,0.0,meteohub,2013-05-04 03:31:00,
2013-05-03 23:37:00,50.4,42.4,30.32,NNE,30,0.0,5.0,71,0.00,,,0.00,0.0,meteohub,2013-05-04 03:37:00,
2013-05-03 23:42:00,50.2,42.3,30.32,NNE,30,0.0,0.0,71,0.00,,,0.00,0.0,meteohub,2013-05-04 03:42:00,
2013-05-03 23:47:00,49.8,41.9,30.32,NNE,30,0.0,0.0,71,0.00,,,0.00,0.0,meteohub,2013-05-04 03:47:00,
2013-05-03 23:52:00,49.6,42.1,30.32,NNE,30,0.0,0.0,72,0.00,,,0.00,0.0,meteohub,2013-05-04 03:52:00,
2013-05-03 23:57:00,49.3,42.1,30.31,NNE,30,0.0,0.0,73,0.00,,,0.00,0.0,meteohub,2013-05-04 03:57:00,